ニート彗星

P/2005 R1 ( NEAT )

English version
Home page
Updated on April 23, 2006

---------------------------------------------------------------------

・ プロフィール

発見日 2005年9月2日
発見光度 18.0等
発見者 Near-Earth-Asteroid Tracking Team (Jet Propulsion Laboratory)

・ 写真集

・ 軌道要素

Epoch 2005 Sept. 27.0 TT = JDT 2453640.5
T 2005 Oct. 8.41415 TT                                  MPC
q   2.0470774            (2000.0)            P               Q
n   0.07633770     Peri.  117.95307     +0.92508930     -0.27615700
a   5.5035552      Node   259.06498     +0.18075506     +0.92388232
e   0.6280445      Incl.   15.39590     +0.33397215     +0.26491275
P  12.91

・ 星図

・ 光度変化

        m1 = 13.5 + 5 logΔ + 10.0 log r

---------------------------------------------------------------------

軌道要素はM.P.E.C. 2005-V88に掲載されたものです。
星図は StellaNavigator Ver.2.0 for Windows (アストロアーツ 編著 / アスキー出版局刊) で作成したものです。
光度グラフはComet for Windowsで作成したものです。

---------------------------------------------------------------------

Copyright(C) Seiichi Yoshida (comet@aerith.net). All rights reserved.